"startDT [UTC]","vpos","CH4 [ppm]","stdev(CH4) [ppm]","CO2 [ppm]","stdev(CO2) [ppm]","H2O_reported [%]","stdev(H2O_reported)","CavityPressure [torr]","CavityTemp [C]","OutletValve","CH4_dry [ppm]","CO2_dry [ppm]","DasTemp [C]","EtalonTemp [C]","WarmBoxTemp [C]","MPVPosition","T_ECpre [C]","T_EC1 [C]","T_EC2 [C]","p_inlet [hPa]","p_in [hPa]","p_out [hPa]","T_inlet [C]","RH_inlet [%]","dwpt_inlet [C]","T_vent [C]","RH_vent [%]","dwpt_vent [C]","flow_vent [l min-1]","flow_inlet [l min-1]","dwpt_sample [C]","T_room [C]"
2015-06-08 00:00:00,0.0,1.92488,0.00042,397.728,0.065,0.8421,0.0024,139.999,45.000,32129.18593,1.94126,401.864,37.691,45.066,45.000,0.00,0.10,-272.72,-272.79,-3,663,-11,28.4,16.3,0.4,28.2,16.4,0.3,5.73,1.63,1.1,31.8
2015-06-08 00:01:00,0.0,1.92551,0.00053,397.659,0.045,0.8442,0.0025,139.998,45.000,32126.79741,1.94191,401.807,37.693,45.066,45.000,0.00,0.10,-272.71,-272.77,-4,662,-11,28.4,16.3,0.4,28.2,16.4,0.3,5.73,1.78,1.1,31.8
2015-06-08 00:02:00,0.0,1.92452,0.00050,397.764,0.065,0.8457,0.0023,140.000,45.000,32126.55569,1.94104,401.917,37.690,45.066,45.000,0.00,0.10,-272.72,-272.78,-3,662,-11,28.4,16.4,0.5,28.2,16.4,0.3,5.73,1.82,1.1,31.8
2015-06-08 00:03:00,0.0,1.92468,0.00069,397.703,0.120,0.8463,0.0025,140.000,45.000,32126.89464,1.94110,401.866,37.692,45.066,45.000,0.00,0.10,-272.72,-272.79,-3,663,-11,28.4,16.3,0.4,28.2,16.4,0.3,5.73,1.67,1.0,31.8
2015-06-08 00:04:00,0.0,1.92583,0.00037,397.587,0.042,0.8408,0.0028,140.000,45.000,32126.64072,1.94218,401.716,37.691,45.066,45.000,0.00,0.10,-272.71,-272.78,-4,662,-11,28.4,16.2,0.4,28.2,16.5,0.3,5.73,1.62,1.0,31.8
2015-06-08 00:05:00,0.0,1.92503,0.00049,397.528,0.053,0.8377,0.0033,139.999,45.000,32127.55933,1.94134,401.642,37.692,45.066,45.000,0.00,0.10,-272.71,-272.78,-3,662,-11,28.4,16.2,0.3,28.1,16.5,0.3,5.73,1.76,1.0,31.8
2015-06-08 00:06:00,0.0,1.92596,0.00042,397.575,0.037,0.8375,0.0025,139.999,45.000,32127.84693,1.94221,401.685,37.691,45.066,45.000,0.00,0.10,-272.72,-272.78,-3,663,-11,28.4,16.2,0.3,28.1,16.5,0.3,5.73,1.83,1.1,31.8
2015-06-08 00:07:00,0.0,1.92585,0.00054,397.631,0.035,0.8382,0.0016,139.998,45.000,32125.23602,1.94221,401.746,37.685,45.066,45.000,0.00,0.10,-272.71,-272.78,-4,663,-11,28.4,16.2,0.3,28.1,16.5,0.3,5.73,1.70,1.0,31.7
2015-06-08 00:08:00,0.0,1.92563,0.00043,397.605,0.035,0.8377,0.0021,140.001,45.000,32127.58033,1.94192,401.721,37.668,45.066,45.000,0.00,0.10,-272.71,-272.78,-4,662,-11,28.4,16.2,0.3,28.1,16.5,0.3,5.73,1.61,1.0,31.7
2015-06-08 00:09:00,0.0,1.92526,0.00085,397.545,0.050,0.8344,0.0025,139.998,45.000,32128.41366,1.94158,401.644,37.666,45.066,45.000,0.00,0.10,-272.72,-272.78,-2,663,-11,28.4,16.1,0.2,28.1,16.5,0.4,5.73,1.74,1.0,31.8
2015-06-08 00:10:00,0.0,1.92430,0.00064,397.421,0.078,0.8295,0.0027,140.000,45.000,32129.44606,1.94041,401.493,37.677,45.066,45.000,0.00,0.10,-272.72,-272.79,-3,663,-11,28.4,16.0,0.1,28.1,16.5,0.4,5.73,1.83,1.0,31.8
2015-06-08 00:11:00,0.0,1.92425,0.00061,397.396,0.049,0.8254,0.0017,139.999,45.000,32128.77846,1.94028,401.444,37.639,45.066,45.000,0.00,0.10,-272.71,-272.78,-4,663,-11,28.4,16.0,0.1,28.1,16.6,0.4,5.73,1.72,1.0,31.7
2015-06-08 00:12:00,0.0,1.92505,0.00071,397.407,0.044,0.8283,0.0026,139.999,45.000,32128.16254,1.94110,401.470,37.642,45.066,45.000,0.00,0.10,-272.71,-272.78,-3,662,-11,28.4,16.0,0.2,28.1,16.6,0.4,5.73,1.61,1.0,31.7
2015-06-08 00:13:00,0.0,1.92597,0.00030,397.401,0.034,0.8326,0.0021,140.001,45.000,32128.26050,1.94219,401.487,37.635,45.066,45.000,0.00,0.10,-272.72,-272.78,-3,663,-11,28.4,16.1,0.2,28.1,16.6,0.4,5.73,1.72,1.0,31.7
2015-06-08 00:14:00,0.0,1.92637,0.00051,397.367,0.039,0.8299,0.0025,140.001,45.000,32129.18711,1.94248,401.440,37.627,45.066,45.000,0.00,0.10,-272.72,-272.78,-4,663,-11,28.4,16.0,0.1,28.1,16.7,0.4,5.73,1.84,1.0,31.8
2015-06-08 00:15:00,0.0,1.92607,0.00060,397.373,0.036,0.8239,0.0015,140.000,45.000,32130.08302,1.94213,401.416,37.623,45.066,45.000,0.00,0.10,-272.71,-272.77,-3,663,-11,28.4,15.9,0.0,28.1,16.7,0.4,5.73,1.73,1.0,31.8
2015-06-08 00:16:00,0.0,1.92635,0.00069,397.368,0.024,0.8231,0.0021,139.997,45.000,32127.63419,1.94232,401.404,37.612,45.066,45.000,0.00,0.10,-272.72,-272.78,-3,663,-11,28.3,16.0,0.0,28.1,16.7,0.4,5.73,1.61,1.0,31.8
2015-06-08 00:17:00,0.0,1.92752,0.00050,397.413,0.034,0.8259,0.0017,140.000,45.000,32127.73088,1.94357,401.464,37.596,45.066,45.000,0.00,0.10,-272.72,-272.79,-4,663,-11,28.3,16.0,0.1,28.1,16.7,0.4,5.73,1.70,1.0,31.7
2015-06-08 00:18:00,0.0,1.92767,0.00052,397.442,0.021,0.8251,0.0016,139.999,45.000,32124.71152,1.94370,401.490,37.587,45.066,45.000,0.00,0.10,-272.71,-272.77,-3,663,-11,28.3,16.0,0.1,28.1,16.7,0.5,5.73,1.84,1.0,31.7
2015-06-08 00:19:00,0.0,1.92759,0.00058,397.419,0.036,0.8203,0.0024,140.000,45.000,32126.11596,1.94365,401.445,37.582,45.066,45.000,0.00,0.10,-272.71,-272.78,-2,663,-11,28.3,15.9,-0.0,28.1,16.7,0.5,5.73,1.75,1.0,31.7
2015-06-08 00:20:00,0.0,1.92738,0.00063,397.399,0.041,0.8181,0.0021,140.000,45.000,32127.18746,1.94324,401.409,37.593,45.066,45.000,0.00,0.10,-272.72,-272.79,-3,663,-11,28.3,15.8,-0.1,28.1,16.7,0.5,5.73,1.61,0.9,31.7
2015-06-08 00:21:00,0.0,1.92827,0.00033,397.434,0.034,0.8183,0.0016,139.999,45.000,32124.05570,1.94420,401.449,37.594,45.066,45.000,0.00,0.10,-272.71,-272.78,-4,663,-11,28.3,15.9,-0.0,28.1,16.7,0.5,5.73,1.68,0.9,31.7
2015-06-08 00:22:00,0.0,1.92841,0.00037,397.464,0.026,0.8203,0.0023,140.001,45.000,32126.17442,1.94438,401.486,37.611,45.066,45.000,0.00,0.10,-272.71,-272.78,-3,663,-11,28.3,15.9,0.0,28.1,16.7,0.4,5.73,1.83,0.9,31.7
2015-06-08 00:23:00,0.0,1.92858,0.00038,397.422,0.040,0.8204,0.0030,139.999,45.000,32127.17453,1.94456,401.447,37.590,45.066,45.000,0.00,0.10,-272.72,-272.78,-3,663,-11,28.3,15.9,-0.0,28.0,16.7,0.4,5.73,1.78,0.9,31.7
2015-06-08 00:24:00,0.0,1.92840,0.00059,397.451,0.035,0.8163,0.0024,140.000,45.000,32127.84338,1.94426,401.454,37.567,45.066,45.000,0.00,0.10,-272.72,-272.77,-4,663,-11,28.3,15.8,-0.1,28.0,16.7,0.4,5.73,1.62,0.9,31.7
2015-06-08 00:25:00,0.0,1.92916,0.00037,397.525,0.032,0.8143,0.0017,139.999,45.000,32128.50643,1.94503,401.520,37.563,45.066,45.000,0.00,0.10,-272.72,-272.78,-3,663,-11,28.3,15.8,-0.1,28.0,16.7,0.4,5.73,1.66,0.9,31.7
2015-06-08 00:26:00,0.0,1.92897,0.00047,397.476,0.043,0.8145,0.0015,140.001,45.000,32130.98207,1.94484,401.473,37.563,45.066,45.000,0.00,0.10,-272.72,-272.79,-3,663,-11,28.3,15.8,-0.1,28.0,16.7,0.4,5.73,1.82,0.9,31.7
2015-06-08 00:27:00,0.0,1.92918,0.00043,397.517,0.100,0.8112,0.0020,139.999,45.000,32130.03338,1.94496,401.493,37.556,45.066,45.000,0.00,0.10,-272.72,-272.78,-4,663,-11,28.3,15.7,-0.2,28.0,16.7,0.4,5.73,1.78,0.9,31.7
2015-06-08 00:28:00,0.0,1.92982,0.00046,397.522,0.035,0.8061,0.0015,140.000,45.000,32129.99070,1.94551,401.478,37.539,45.066,45.000,0.00,0.10,-272.71,-272.78,-3,663,-11,28.3,15.6,-0.3,28.0,16.6,0.4,5.73,1.63,0.9,31.6
2015-06-08 00:29:00,0.0,1.92951,0.00081,397.500,0.048,0.8039,0.0018,139.999,45.000,32129.83499,1.94519,401.442,37.525,45.066,45.000,0.00,0.10,-272.71,-272.78,-2,663,-11,28.3,15.6,-0.3,28.0,16.6,0.4,5.73,1.66,0.9,31.6
2015-06-08 00:30:00,0.0,1.92910,0.00059,397.469,0.040,0.8036,0.0018,139.999,45.000,32128.35519,1.94479,401.411,37.504,45.066,45.000,0.00,0.10,-272.72,-272.78,-3,663,-11,28.2,15.6,-0.3,28.0,16.6,0.3,5.73,1.82,0.9,31.7
2015-06-08 00:31:00,0.0,1.92941,0.00065,397.470,0.041,0.8026,0.0026,139.997,45.000,32126.90640,1.94499,401.403,37.504,45.066,45.000,0.00,0.10,-272.72,-272.77,-3,663,-11,28.2,15.6,-0.3,28.0,16.6,0.3,5.73,1.79,0.9,31.6
2015-06-08 00:32:00,0.0,1.92999,0.00042,397.507,0.032,0.8023,0.0022,140.001,45.000,32127.70670,1.94561,401.441,37.500,45.066,45.000,0.00,0.10,-272.71,-272.78,-2,663,-11,28.2,15.6,-0.3,28.0,16.6,0.3,5.73,1.63,0.9,31.6
2015-06-08 00:33:00,0.0,1.92995,0.00059,397.460,0.035,0.8014,0.0022,139.998,45.000,32126.80420,1.94555,401.390,37.500,45.066,45.000,0.00,0.10,-272.71,-272.78,-3,663,-11,28.2,15.6,-0.4,28.0,16.6,0.3,5.73,1.65,0.9,31.6
2015-06-08 00:34:00,0.0,1.93005,0.00041,397.489,0.045,0.7991,0.0017,140.000,45.000,32129.04139,1.94561,401.405,37.500,45.066,45.000,0.00,0.10,-272.72,-272.78,-4,663,-11,28.2,15.5,-0.4,28.0,16.6,0.3,5.73,1.81,0.8,31.5
2015-06-08 00:35:00,0.0,1.93064,0.00053,397.516,0.041,0.7999,0.0017,140.001,45.000,32129.08780,1.94623,401.441,37.499,45.066,45.000,0.00,0.10,-272.71,-272.78,-2,663,-11,28.2,15.6,-0.4,28.0,16.6,0.3,5.73,1.80,0.9,31.6
2015-06-08 00:36:00,0.0,1.93064,0.00028,397.517,0.041,0.8036,0.0020,140.000,45.000,32128.36341,1.94629,401.455,37.489,45.066,45.000,0.00,0.10,-272.72,-272.78,-3,663,-11,28.2,15.7,-0.3,27.9,16.5,0.2,5.73,1.64,0.8,31.6
2015-06-08 00:37:00,0.0,1.93038,0.00033,397.520,0.037,0.8051,0.0018,140.001,45.000,32127.92630,1.94606,401.468,37.469,45.066,45.000,0.00,0.10,-272.72,-272.79,-4,663,-11,28.2,15.7,-0.3,27.9,16.5,0.2,5.73,1.65,0.8,31.6
2015-06-08 00:38:00,0.0,1.93025,0.00031,397.493,0.033,0.8066,0.0022,139.999,45.000,32128.74243,1.94596,401.449,37.485,45.066,45.000,0.00,0.10,-272.72,-272.78,-3,663,-10,28.2,15.7,-0.3,27.9,16.5,0.2,5.73,1.81,0.8,31.5
2015-06-08 00:39:00,0.0,1.93080,0.00043,397.504,0.030,0.8059,0.0021,140.000,45.000,32129.45004,1.94648,401.456,37.471,45.066,45.000,0.00,0.10,-272.72,-272.78,-2,663,-11,28.2,15.7,-0.3,27.9,16.5,0.2,5.73,1.80,0.8,31.6
2015-06-08 00:40:00,0.0,1.93059,0.00038,397.504,0.032,0.8062,0.0019,140.000,45.000,32131.28064,1.94629,401.457,37.476,45.066,45.000,0.00,0.10,-272.72,-272.79,-4,663,-11,28.2,15.7,-0.3,27.9,16.5,0.2,5.73,1.63,0.8,31.6
2015-06-08 00:41:00,0.0,1.93067,0.00038,397.552,0.046,0.8059,0.0019,139.999,45.000,32130.17033,1.94641,401.505,37.460,45.066,45.000,0.00,0.10,-272.71,-272.78,-3,663,-11,28.2,15.7,-0.3,27.9,16.5,0.2,5.73,1.65,0.8,31.5
2015-06-08 00:42:00,0.0,1.93119,0.00035,397.549,0.038,0.8031,0.0021,140.001,45.000,32129.87782,1.94681,401.486,37.458,45.066,45.000,0.00,0.10,-272.72,-272.77,-2,663,-11,28.2,15.7,-0.3,27.9,16.5,0.1,5.73,1.82,0.8,31.5
2015-06-08 00:43:00,0.0,1.93049,0.00050,397.543,0.039,0.8005,0.0017,139.999,45.000,32130.24001,1.94612,401.469,37.456,45.066,45.000,0.00,0.10,-272.72,-272.78,-3,664,-11,28.2,15.6,-0.4,27.9,16.4,0.1,5.73,1.80,0.8,31.5
2015-06-08 00:44:00,0.0,1.93091,0.00030,397.607,0.037,0.8025,0.0025,140.002,45.000,32131.05871,1.94654,401.542,37.439,45.066,45.000,0.00,0.10,-272.71,-272.78,-3,663,-11,28.2,15.7,-0.3,27.9,16.4,0.1,5.73,1.63,0.8,31.5
2015-06-08 00:45:00,0.0,1.93068,0.00035,397.589,0.040,0.8032,0.0024,140.001,45.000,32130.94087,1.94632,401.528,37.438,45.066,45.000,0.00,0.10,-272.71,-272.77,-2,664,-11,28.2,15.7,-0.3,27.9,16.4,0.1,5.73,1.65,0.8,31.5
2015-06-08 00:46:00,0.0,1.93202,0.00046,397.682,0.066,0.8021,0.0017,139.999,45.000,32129.01623,1.94763,401.615,37.436,45.066,45.000,0.00,0.10,-272.72,-272.78,-3,663,-11,28.2,15.7,-0.3,27.9,16.4,0.1,5.73,1.82,0.8,31.5
2015-06-08 00:47:00,0.0,1.93282,0.00063,397.772,0.058,0.8020,0.0018,139.999,45.000,32126.98895,1.94842,401.704,37.402,45.066,45.000,0.00,0.10,-272.72,-272.79,-4,664,-11,28.1,15.7,-0.3,27.9,16.4,0.1,5.73,1.79,0.8,31.5
2015-06-08 00:48:00,0.0,1.93294,0.00043,397.837,0.027,0.8057,0.0020,139.998,45.000,32127.93616,1.94870,401.792,37.408,45.066,45.000,0.00,0.10,-272.71,-272.78,-2,664,-11,28.1,15.9,-0.2,27.9,16.4,0.1,5.73,1.62,0.8,31.5
2015-06-08 00:49:00,0.0,1.93212,0.00068,397.791,0.075,0.8069,0.0018,139.999,45.000,32129.67429,1.94795,401.756,37.391,45.066,45.000,0.00,0.10,-272.71,-272.78,-3,664,-11,28.1,15.9,-0.2,27.9,16.4,0.1,5.73,1.67,0.8,31.5
2015-06-08 00:50:00,0.0,1.93241,0.00128,397.739,0.157,0.8050,0.0018,140.000,45.000,32128.41093,1.94796,401.681,37.395,45.066,45.000,0.00,0.10,-272.72,-272.79,-4,664,-11,28.1,15.9,-0.2,27.9,16.4,0.1,5.73,1.83,0.8,31.5
2015-06-08 00:51:00,0.0,1.93368,0.00044,397.887,0.035,0.8053,0.0022,139.998,45.000,32127.49890,1.94940,401.841,37.380,45.066,45.000,0.00,0.10,-272.72,-272.78,-2,664,-11,28.1,15.9,-0.2,27.9,16.4,0.1,5.73,1.77,0.7,31.5
2015-06-08 00:52:00,0.0,1.93364,0.00036,397.823,0.050,0.8063,0.0020,139.999,45.000,32125.91386,1.94940,401.782,37.384,45.066,45.000,0.00,0.10,-272.71,-272.78,-3,664,-10,28.1,15.9,-0.2,27.9,16.4,0.1,5.73,1.61,0.8,31.5
2015-06-08 00:53:00,0.0,1.93283,0.00073,397.711,0.067,0.8027,0.0019,139.999,45.000,32128.36048,1.94849,401.649,37.376,45.066,45.000,0.00,0.10,-272.72,-272.78,-4,664,-11,28.1,15.9,-0.2,27.8,16.4,0.1,5.73,1.68,0.7,31.5
2015-06-08 00:54:00,0.0,1.93317,0.00053,397.905,0.112,0.8026,0.0020,140.002,45.000,32129.20729,1.94882,401.843,37.375,45.066,45.000,0.00,0.10,-272.73,-272.78,-3,664,-10,28.1,15.9,-0.2,27.8,16.4,0.0,5.73,1.84,0.7,31.5
2015-06-08 00:55:00,0.0,1.93321,0.00054,397.734,0.102,0.8031,0.0015,139.996,45.000,32126.35753,1.94891,401.678,37.373,45.066,45.000,0.00,0.10,-272.72,-272.78,-2,664,-10,28.1,15.9,-0.2,27.8,16.4,0.0,5.73,1.75,0.7,31.5
2015-06-08 00:56:00,0.0,1.93323,0.00044,397.690,0.050,0.8027,0.0015,140.000,45.000,32125.44791,1.94886,401.628,37.349,45.066,45.000,0.00,0.10,-272.72,-272.78,-4,664,-10,28.1,15.9,-0.2,27.8,16.4,0.0,5.73,1.60,0.7,31.5
2015-06-08 00:57:00,0.0,1.93361,0.00038,397.695,0.045,0.8015,0.0023,139.999,45.000,32124.63945,1.94926,401.629,37.325,45.066,45.000,0.00,0.10,-272.72,-272.78,-3,664,-10,28.1,15.8,-0.3,27.8,16.4,0.0,5.73,1.70,0.7,31.5
2015-06-08 00:58:00,0.0,1.93344,0.00047,397.593,0.055,0.8028,0.0017,140.000,45.000,32122.89659,1.94913,401.530,37.315,45.066,45.000,0.00,0.10,-272.71,-272.78,-2,664,-10,28.1,15.9,-0.2,27.8,16.4,0.0,5.73,1.85,0.7,31.5
2015-06-08 00:59:00,0.0,1.93370,0.00047,397.568,0.030,0.8031,0.0019,139.998,45.000,32121.67766,1.94939,401.507,37.313,45.066,45.000,0.00,0.10,-272.71,-272.78,-3,664,-10,28.1,15.9,-0.2,27.8,16.4,0.0,5.73,1.73,0.7,31.5
2015-06-08 01:00:00,0.0,1.93307,0.00077,397.614,0.083,0.8041,0.0017,140.002,45.000,32124.23567,1.94868,401.554,37.312,45.066,45.000,0.00,0.10,-272.72,-272.79,-3,664,-11,28.1,15.9,-0.2,27.8,16.4,0.0,5.73,1.60,0.7,31.4
2015-06-08 01:01:00,0.0,1.93491,0.00037,397.724,0.035,0.8052,0.0021,140.002,45.000,32124.87243,1.95063,401.675,37.313,45.066,45.000,0.00,0.10,-272.71,-272.78,-2,664,-11,28.1,16.0,-0.2,27.8,16.4,0.0,5.73,1.73,0.7,31.5
2015-06-08 01:02:00,0.0,1.93517,0.00034,397.754,0.040,0.8060,0.0023,140.004,45.000,32124.24813,1.95089,401.708,37.311,45.066,45.000,0.00,0.10,-272.71,-272.78,-3,664,-10,28.1,16.0,-0.1,27.8,16.4,0.0,5.73,1.85,0.7,31.5
2015-06-08 01:03:00,0.0,1.93510,0.00045,397.751,0.058,0.8070,0.0016,139.999,45.000,32124.37424,1.95087,401.713,37.309,45.066,45.000,0.00,0.10,-272.72,-272.78,-3,664,-11,28.0,16.0,-0.1,27.8,16.4,0.0,5.73,1.71,0.7,31.4
2015-06-08 01:04:00,0.0,1.93394,0.00056,397.594,0.061,0.8061,0.0017,140.000,45.000,32125.21346,1.94971,401.550,37.308,45.066,45.000,0.00,0.10,-272.72,-272.79,-2,664,-11,28.1,16.0,-0.1,27.8,16.4,0.0,5.73,1.61,0.7,31.4
2015-06-08 01:05:00,0.0,1.93418,0.00050,397.648,0.048,0.8090,0.0020,139.999,45.000,32126.37121,1.94996,401.614,37.311,45.066,45.000,0.00,0.10,-272.72,-272.78,-3,664,-10,28.1,16.1,-0.1,27.8,16.4,0.0,5.73,1.76,0.7,31.5
2015-06-08 01:06:00,0.0,1.93435,0.00050,397.666,0.051,0.8120,0.0020,139.997,45.000,32126.34258,1.95023,401.653,37.307,45.066,45.000,0.00,0.10,-272.72,-272.78,-3,664,-11,28.0,16.1,-0.0,27.8,16.4,-0.0,5.73,1.84,0.7,31.4
2015-06-08 01:07:00,0.0,1.93426,0.00041,397.539,0.032,0.8111,0.0021,139.997,45.000,32122.82748,1.95009,401.518,37.303,45.066,45.000,0.00,0.10,-272.72,-272.78,-2,664,-10,28.0,16.1,-0.1,27.8,16.4,-0.0,5.73,1.68,0.7,31.4
2015-06-08 01:08:00,0.0,1.93445,0.00041,397.573,0.062,0.8082,0.0020,140.000,45.000,32122.57835,1.95021,401.536,37.278,45.066,45.000,0.00,0.10,-272.71,-272.78,-3,664,-10,28.0,16.1,-0.1,27.8,16.4,0.0,5.73,1.62,0.7,31.4
2015-06-08 01:09:00,0.0,1.93497,0.00030,397.620,0.028,0.8090,0.0018,139.998,45.000,32121.81537,1.95077,401.590,37.259,45.066,45.000,0.00,0.10,-272.72,-272.78,-3,664,-10,28.0,16.1,-0.1,27.7,16.4,-0.0,5.73,1.79,0.7,31.4
2015-06-08 01:10:00,0.0,1.93497,0.00043,397.556,0.043,0.8101,0.0021,140.000,45.000,32122.01980,1.95077,401.531,37.253,45.066,45.000,0.00,0.10,-272.72,-272.79,-2,664,-10,28.0,16.1,-0.1,27.7,16.4,-0.0,5.73,1.82,1.0,31.4
2015-06-08 01:11:00,0.0,1.93478,0.00058,397.482,0.032,0.8106,0.0023,139.999,45.000,32122.77312,1.95065,401.458,37.256,45.066,45.000,0.00,0.10,-272.72,-272.78,-3,664,-10,28.0,16.1,-0.1,27.7,16.4,-0.0,5.73,1.65,1.4,31.4
2015-06-08 01:12:00,0.0,1.93453,0.00048,397.477,0.054,0.8093,0.0019,140.003,45.000,32123.37651,1.95037,401.447,37.254,45.066,45.000,0.00,0.10,-272.71,-272.78,-3,664,-10,28.0,16.1,-0.1,27.7,16.4,-0.0,5.73,1.64,1.3,31.4
2015-06-08 01:13:00,0.0,1.93463,0.00034,397.499,0.035,0.8086,0.0023,139.999,45.000,32122.79403,1.95039,401.464,37.251,45.066,45.000,0.00,0.10,-272.71,-272.78,-2,664,-10,28.0,16.1,-0.1,27.7,16.4,-0.0,5.73,1.82,1.3,31.3
2015-06-08 01:14:00,0.0,1.93483,0.00050,397.502,0.027,0.8109,0.0028,140.001,45.000,32122.66208,1.95070,401.479,37.251,45.066,45.000,0.00,0.10,-272.72,-272.79,-2,664,-10,28.0,16.2,-0.0,27.7,16.5,-0.0,5.73,1.81,1.2,31.3
2015-06-08 01:15:00,0.0,1.93462,0.00045,397.449,0.049,0.8128,0.0024,139.999,45.000,32121.40049,1.95049,401.438,37.250,45.066,45.000,0.00,0.35,-270.41,-271.45,-3,664,-10,28.0,16.2,-0.0,27.7,16.5,-0.0,5.43,1.71,-2.5,31.4
2015-06-08 01:16:00,0.0,1.93463,0.00032,397.441,0.039,0.8092,0.0020,139.999,45.000,32122.39288,1.95041,401.408,37.249,45.066,45.000,0.00,0.10,-272.71,-272.79,-2,664,-10,28.0,16.1,-0.1,27.7,16.5,-0.0,5.73,1.66,1.1,31.3
2015-06-08 01:17:00,0.0,1.93548,0.00058,397.494,0.054,0.8090,0.0017,139.999,45.000,32122.88500,1.95127,401.459,37.249,45.066,45.000,0.00,0.10,-272.72,-272.79,-2,664,-10,28.0,16.2,-0.1,27.7,16.5,-0.0,5.73,1.84,1.0,31.3
2015-06-08 01:18:00,0.0,1.93565,0.00042,397.544,0.036,0.8111,0.0027,140.001,45.000,32124.45830,1.95150,401.523,37.239,45.066,45.000,0.00,0.10,-272.72,-272.78,-3,664,-10,28.0,16.2,-0.0,27.7,16.5,-0.0,5.73,1.77,1.0,31.3
2015-06-08 01:19:00,0.0,1.93565,0.00043,397.525,0.047,0.8140,0.0022,139.999,45.000,32122.74115,1.95154,401.517,37.227,45.066,45.000,0.00,0.10,-272.72,-272.78,-3,664,-10,27.9,16.3,0.0,27.7,16.5,-0.0,5.73,1.60,1.0,31.3
2015-06-08 01:20:00,0.0,1.93564,0.00078,397.545,0.063,0.8143,0.0017,139.999,45.000,32122.87632,1.95159,401.541,37.205,45.066,45.000,0.00,0.10,-272.72,-272.78,-2,664,-10,27.9,16.3,0.0,27.7,16.5,-0.0,5.73,1.71,0.9,31.3
2015-06-08 01:21:00,0.0,1.93484,0.00047,397.504,0.036,0.8140,0.0019,140.000,45.000,32123.40377,1.95077,401.496,37.225,45.066,45.000,0.00,0.10,-272.72,-272.79,-3,664,-10,27.9,16.3,0.0,27.7,16.5,0.0,5.73,1.85,0.9,31.3
2015-06-08 01:22:00,0.0,1.93485,0.00048,397.493,0.035,0.8136,0.0018,139.998,45.000,32122.38206,1.95073,401.485,37.221,45.066,45.000,0.00,0.10,-272.72,-272.77,-3,664,-10,27.9,16.3,-0.0,27.7,16.5,-0.0,5.73,1.72,0.9,31.3
2015-06-08 01:23:00,0.0,1.93511,0.00048,397.481,0.048,0.8124,0.0017,140.000,45.000,32122.73505,1.95098,401.467,37.222,45.066,45.000,0.00,0.10,-272.71,-272.78,-2,664,-10,27.9,16.3,-0.0,27.7,16.5,0.0,5.73,1.60,0.8,31.3
2015-06-08 01:24:00,0.0,1.93478,0.00043,397.453,0.034,0.8125,0.0020,140.000,45.000,32122.67318,1.95065,401.436,37.195,45.066,45.000,0.00,0.10,-272.72,-272.79,-3,664,-10,27.9,16.3,0.0,27.6,16.6,0.0,5.73,1.75,0.8,31.2
2015-06-08 01:25:00,0.0,1.93469,0.00074,397.380,0.060,0.8159,0.0022,140.000,45.000,32122.30772,1.95064,401.383,37.190,45.066,45.000,0.00,0.10,-272.71,-272.78,-3,664,-10,27.9,16.4,0.1,27.7,16.6,0.0,5.73,1.85,0.8,31.2
2015-06-08 01:26:00,0.0,1.93458,0.00044,397.371,0.041,0.8154,0.0020,140.002,45.000,32124.20926,1.95049,401.368,37.188,45.066,45.000,0.00,0.10,-272.71,-272.77,-2,664,-10,27.9,16.4,0.1,27.7,16.6,0.0,5.73,1.68,0.8,31.2
2015-06-08 01:27:00,0.0,1.93537,0.00043,397.411,0.041,0.8152,0.0017,139.998,45.000,32123.41241,1.95131,401.408,37.182,45.066,45.000,0.00,0.10,-272.72,-272.79,-3,664,-10,27.9,16.3,0.0,27.6,16.6,0.0,5.73,1.62,0.7,31.2
2015-06-08 01:28:00,0.0,1.93596,0.00049,397.453,0.029,0.8152,0.0021,139.999,45.000,32122.85827,1.95184,401.452,37.167,45.066,45.000,0.00,0.10,-272.71,-272.79,-3,664,-10,27.9,16.3,0.0,27.6,16.6,0.0,5.73,1.80,0.7,31.2
2015-06-08 01:29:00,0.0,1.93657,0.00050,397.439,0.041,0.8125,0.0023,139.995,45.000,32124.06792,1.95244,401.425,37.147,45.066,45.000,0.00,0.10,-272.72,-272.78,-2,664,-10,27.9,16.3,-0.0,27.6,16.6,0.0,5.73,1.82,0.7,31.2
2015-06-08 01:30:00,0.0,1.93639,0.00044,397.384,0.041,0.8095,0.0021,139.998,45.000,32122.77262,1.95224,401.354,37.137,45.066,45.000,0.00,0.10,-272.72,-272.78,-3,665,-10,27.9,16.2,-0.1,27.6,16.6,0.1,5.73,1.64,0.7,31.2
2015-06-08 01:31:00,0.0,1.93607,0.00035,397.349,0.038,0.8105,0.0018,140.002,45.000,32121.98153,1.95192,401.322,37.140,45.066,45.000,0.00,0.10,-272.72,-272.79,-3,664,-10,27.9,16.3,-0.0,27.6,16.6,0.0,5.73,1.65,0.7,31.2
2015-06-08 01:32:00,0.0,1.93649,0.00033,397.396,0.040,0.8119,0.0016,140.002,45.000,32120.96972,1.95235,401.377,37.128,45.066,45.000,0.00,0.10,-272.72,-272.78,-2,665,-10,27.9,16.3,-0.0,27.6,16.6,0.0,5.73,1.84,0.7,31.2
2015-06-08 01:33:00,0.0,1.93676,0.00048,397.392,0.025,0.8121,0.0020,140.001,45.000,32121.07243,1.95264,401.374,37.125,45.066,45.000,0.00,0.10,-272.72,-272.78,-3,665,-10,27.9,16.3,-0.0,27.6,16.6,0.0,5.73,1.77,0.6,31.2
2015-06-08 01:34:00,0.0,1.93642,0.00033,397.366,0.031,0.8113,0.0018,139.998,45.000,32120.08753,1.95230,401.345,37.124,45.066,45.000,0.00,0.10,-272.72,-272.78,-3,665,-10,27.9,16.3,-0.0,27.6,16.7,0.1,5.73,1.60,0.6,31.2
2015-06-08 01:35:00,0.0,1.93715,0.00050,397.374,0.041,0.8112,0.0023,139.999,45.000,32119.76354,1.95294,401.350,37.114,45.066,45.000,0.00,0.10,-272.72,-272.78,-2,665,-10,27.9,16.3,-0.0,27.6,16.7,0.1,5.73,1.71,0.6,31.2
2015-06-08 01:36:00,0.0,1.93728,0.00052,397.384,0.038,0.8081,0.0022,139.998,45.000,32118.18096,1.95311,401.348,37.098,45.066,45.000,0.00,0.10,-272.72,-272.78,-3,665,-10,27.8,16.2,-0.1,27.6,16.7,0.0,5.73,1.85,0.6,31.2
2015-06-08 01:37:00,0.0,1.93625,0.00075,397.313,0.052,0.8068,0.0015,140.002,45.000,32120.16554,1.95208,401.268,37.103,45.066,45.000,0.00,0.10,-272.72,-272.78,-3,664,-10,27.8,16.2,-0.1,27.5,16.7,0.0,5.73,1.72,0.6,31.1
2015-06-08 01:38:00,0.0,1.93490,0.00056,397.202,0.045,0.8042,0.0018,140.002,45.000,32119.67279,1.95064,401.146,37.100,45.066,45.000,0.00,0.10,-272.72,-272.78,-2,665,-10,27.8,16.2,-0.2,27.5,16.7,0.0,5.73,1.61,0.6,31.2
2015-06-08 01:39:00,0.0,1.93388,0.00049,397.142,0.037,0.8032,0.0022,139.998,45.000,32117.06564,1.94956,401.078,37.073,45.066,45.000,0.00,0.10,-272.71,-272.78,-3,665,-10,27.8,16.2,-0.2,27.5,16.7,0.0,5.73,1.76,0.6,31.1
2015-06-08 01:40:00,0.0,1.93462,0.00033,397.198,0.033,0.8041,0.0016,139.999,45.000,32117.98698,1.95031,401.136,37.063,45.066,45.000,0.00,0.10,-272.72,-272.79,-3,665,-10,27.8,16.2,-0.2,27.5,16.7,0.0,5.73,1.84,0.6,31.2
2015-06-08 01:41:00,0.0,1.93475,0.00029,397.177,0.031,0.8064,0.0016,140.000,45.000,32119.46871,1.95050,401.130,37.057,45.066,45.000,0.00,0.10,-272.72,-272.78,-2,665,-10,27.8,16.2,-0.1,27.5,16.7,0.1,5.73,1.67,0.5,31.2
2015-06-08 01:42:00,0.0,1.93449,0.00041,397.153,0.032,0.8055,0.0015,140.001,45.000,32119.02377,1.95024,401.099,37.042,45.066,45.000,0.00,0.10,-272.71,-272.77,-3,665,-10,27.8,16.2,-0.2,27.5,16.7,0.0,5.73,1.62,0.5,31.2
2015-06-08 01:43:00,0.0,1.93361,0.00085,397.126,0.066,0.8039,0.0019,140.000,45.000,32117.65738,1.94930,401.065,37.035,45.066,45.000,0.00,0.10,-272.72,-272.78,-3,665,-10,27.8,16.2,-0.2,27.5,16.7,0.0,5.73,1.80,0.5,31.2
2015-06-08 01:44:00,0.0,1.93455,0.00047,397.179,0.035,0.8052,0.0024,139.998,45.000,32116.27107,1.95025,401.123,37.039,45.066,45.000,0.00,0.10,-272.72,-272.79,-2,665,-10,27.8,16.2,-0.1,27.5,16.7,0.0,5.73,1.81,0.5,31.1
2015-06-08 01:45:00,0.0,1.93430,0.00055,397.171,0.029,0.8060,0.0023,139.999,45.000,32116.74919,1.95009,401.120,37.034,45.066,45.000,0.00,0.10,-272.72,-272.78,-2,665,-10,27.8,16.3,-0.1,27.5,16.7,0.0,5.73,1.63,0.5,31.1
2015-06-08 01:46:00,0.0,1.93417,0.00033,397.176,0.029,0.8074,0.0019,139.999,45.000,32119.07782,1.94991,401.133,37.003,45.066,45.000,0.00,0.10,-272.71,-272.78,-3,665,-10,27.8,16.3,-0.1,27.5,16.7,0.0,5.73,1.65,0.5,31.1
2015-06-08 01:47:00,0.0,1.93304,0.00110,397.106,0.052,0.8059,0.0020,139.999,45.000,32117.66608,1.94885,401.057,37.001,45.066,45.000,0.00,0.10,-272.72,-272.79,-2,665,-10,27.8,16.3,-0.1,27.5,16.7,-0.0,5.73,1.84,0.5,31.1